Track YAOGAN 17B now! 10-day predictions YAOGAN 17B is classified as:
1 39240U 13046B 23160.84782631 -.00000025 00000-0 79511-4 0 9998 2 39240 63.3992 53.3433 0328454 7.1102 353.4417 13.45229260479898